Park Rapids, MN

5:26 PM CST on February 09, 2016 (GMT -0600)
Park Rapids Municipal

Weather History for KPKD - October, 2012

Change the Weather History Date:

Monday, October 1, 2012

  Actual Average Record
Temperature  
Mean Temperature 52 °F -  
Max Temperature 66 °F 64 °F 85 °F (1992)
Min Temperature 39 °F 40 °F 19 °F (2003)
Degree Days  
Heating Degree Days 12    
Growing Degree Days 2 (Base 50)    
Moisture  
Dew Point 36 °F    
Average Humidity 50    
Maximum Humidity 77    
Minimum Humidity 24    
Precipitation  
Precipitation 0.00 in - - ()
Sea Level Pressure  
Sea Level Pressure 29.98 in    
Wind  
Wind Speed 12 mph (NNW)    
Max Wind Speed 20 mph    
Max Gust Speed 26 mph    
Visibility 10 miles    
Events      
Averages and records for this station are not official NWS values.
T = Trace of Precipitation, MM = Missing Value Source: NWS Daily Summary

Daily Weather History Graph

Daily Weather History Graph

Search for Another Location

Airport or City:

Trip Planner

Search our weather history database for the weather conditions in past years. The results will help you decide how hot, cold, wet, or windy it might be!

Date:

Astronomy

Oct. 01, 2012 Rise Set
Actual Time 7:19 AM CDT 6:58 PM CDT
Civil Twilight 6:49 AM CDT 7:29 PM CDT
Nautical Twilight 6:14 AM CDT 8:04 PM CDT
Astronomical Twilight 5:38 AM CDT 8:40 PM CDT
Moon 7:25 PM CDT (10/1) 8:59 AM CDT (10/1)
Length of Visible Light 12h 39m
Length of Day
11h 39m
Full, 98% of the Moon is Illuminated
Oct 1
Full
Oct 8
Last Quarter
Oct 15
New
Oct 21
First Quarter
Oct 29
Full

Hourly Weather History & Observations

Time (CDT) Temp. Windchill Dew Point Humidity Pressure Visibility Wind Dir Wind Speed Gust Speed Precip Events Conditions
12:53 AM 62.1 °F - 46.9 °F 58% 29.88 in 10.0 mi NNW 11.5 mph - N/A   Clear
1:53 AM 61.0 °F - 46.0 °F 58% 29.89 in 10.0 mi NNW 13.8 mph - N/A   Scattered Clouds
2:53 AM 59.0 °F - 43.0 °F 55% 29.90 in 10.0 mi NNW 12.7 mph 21.9 mph N/A   Scattered Clouds
3:53 AM 57.9 °F - 43.0 °F 58% 29.91 in 10.0 mi NNW 11.5 mph - N/A   Partly Cloudy
4:53 AM 55.0 °F - 42.1 °F 62% 29.93 in 10.0 mi NNW 10.4 mph - N/A   Clear
5:53 AM 52.0 °F - 42.1 °F 69% 29.95 in 10.0 mi NNW 9.2 mph - N/A   Clear
6:53 AM 48.9 °F - 42.1 °F 77% 29.97 in 10.0 mi NW 9.2 mph - N/A   Clear
7:53 AM 48.9 °F - 42.1 °F 77% 29.99 in 10.0 mi NW 10.4 mph - N/A   Clear
8:53 AM 55.4 °F - 41.0 °F 58% 29.99 in 10.0 mi NNW 13.8 mph - N/A   Clear
9:53 AM 57.0 °F - 41.0 °F 55% 30.01 in 10.0 mi NNW 15.0 mph 20.7 mph N/A   Clear
10:53 AM 59.0 °F - 41.0 °F 51% 30.03 in 10.0 mi NNW 15.0 mph 25.3 mph N/A   Clear
11:53 AM 62.1 °F - 37.0 °F 39% 30.02 in 10.0 mi North 19.6 mph 26.5 mph N/A   Clear
12:53 PM 64.0 °F - 36.0 °F 35% 30.01 in 10.0 mi NNW 18.4 mph 26.5 mph N/A   Clear
1:53 PM 64.9 °F - 33.1 °F 31% 29.99 in 10.0 mi North 16.1 mph 25.3 mph N/A   Clear
2:53 PM 66.0 °F - 28.9 °F 25% 29.98 in 10.0 mi NNW 17.3 mph 26.5 mph N/A   Clear
3:53 PM 66.9 °F - 30.0 °F 25% 29.98 in 10.0 mi NNW 13.8 mph - N/A   Clear
4:53 PM 66.0 °F - 28.0 °F 24% 29.99 in 10.0 mi NNW 11.5 mph - N/A   Clear
5:53 PM 64.0 °F - 28.0 °F 26% 29.99 in 10.0 mi NNW 11.5 mph - N/A   Clear
6:53 PM 60.1 °F - 28.9 °F 31% 30.00 in 10.0 mi NNW 6.9 mph - N/A   Clear
7:53 PM 50.0 °F - 28.0 °F 43% 30.02 in 10.0 mi NNW 5.8 mph - N/A   Clear
8:53 PM 48.9 °F - 28.9 °F 46% 30.01 in 10.0 mi NW 3.5 mph - N/A   Clear
9:53 PM 39.9 °F 37.8 °F 28.9 °F 65% 30.03 in 10.0 mi WNW 3.5 mph - N/A   Clear
10:53 PM 39.9 °F - 28.9 °F 65% 30.02 in 10.0 mi Calm Calm - N/A   Clear
11:53 PM 41.0 °F - 28.9 °F 62% 30.01 in 10.0 mi Calm Calm - N/A   Clear